Volver al catálogo

STARLINK-30975

ActivoComunicacionesVLEO
NORAD 58446·PAYLOAD·🇺🇸 United States

Lanzado Nov 28, 2023 desde Cape Canaveral Space Force Station

Loading…

Próximos Pases (próximas 24 horas)

TLE

ActualizadoSource: CelesTrak SupGP

Época: Sep 15, 2026, 02:43 UTC

1 58446C 23183K   26258.11368056 -.00023482  00000+0 -85029-3 0  2582
2 58446  43.0040  51.6388 0001802 272.8752 194.0356 15.27598074    12

Sigue STARLINK-30975 en tiempo real con AllMySat

Download on the App Store